| time (UTC) | temp F | wind direction | speed MPH | gust MPH | rain 1hr in | rain 24hr in | rain mn in | humidity % | barometer mb |
| 20260905151551 | 57 | 91 | 2.0 | 4.0 | 0.00 | 0.00 | 0.00 | 93 | |
| 20260905150520 | 57 | 70 | 2.0 | 4.0 | 0.00 | 0.02 | 0.00 | 94 | |
| 20260905145528 | 57 | 89 | 3.0 | 3.0 | 0.00 | 0.03 | 0.00 | 95 | |
| 20260905144536 | 57 | 0.0 | 0.0 | 0.00 | 0.03 | 0.00 | 96 | ||
| 20260905143527 | 57 | 57 | 2.0 | 3.0 | 0.00 | 0.03 | 0.00 | 96 | |
| 20260905142614 | 57 | 75 | 1.0 | 2.0 | 0.00 | 0.03 | 0.00 | 98 | |
| 20260905141523 | 56 | 0.0 | 0.0 | 0.00 | 0.03 | 0.00 | 99 | ||
| 20260905140531 | 55 | 0.0 | 0.0 | 0.00 | 0.03 | 0.00 | 99 | ||
| 20260905135520 | 55 | 0.0 | 0.0 | 0.00 | 0.03 | 0.00 | 99 | ||
| 20260905134528 | 55 | 0.0 | 0.0 | 0.00 | 0.04 | 0.00 | 99 | ||
| 20260905133556 | 55 | 0.0 | 0.0 | 0.00 | 0.04 | 0.00 | 99 | ||
| 20260905132527 | 55 | 0.0 | 0.0 | 0.00 | 0.04 | 0.00 | 99 | ||
| 20260905131534 | 55 | 0.0 | 0.0 | 0.00 | 0.04 | 0.00 | 99 | ||
| 20260905130543 | 55 | 0.0 | 0.0 | 0.00 | 0.04 | 0.00 | 99 | ||
| 20260905125531 | 55 | 0.0 | 0.0 | 0.00 | 0.04 | 0.00 | 99 | ||
| 20260905124522 | 55 | 46 | 2.0 | 4.0 | 0.00 | 0.04 | 0.00 | 99 | |
| 20260905123529 | 55 | 0.0 | 0.0 | 0.00 | 0.04 | 0.00 | 99 | ||
| 20260905122537 | 55 | 0.0 | 0.0 | 0.00 | 0.04 | 0.00 | 99 | ||
| 20260905121527 | 55 | 45 | 1.0 | 2.0 | 0.00 | 0.04 | 0.00 | 99 | |
| 20260905120535 | 55 | 68 | 2.0 | 3.0 | 0.00 | 0.04 | 0.00 | 99 | |
| 20260905115524 | 55 | 0.0 | 0.0 | 0.00 | 0.04 | 0.00 | 99 | ||
| 20260905114532 | 55 | 40 | 1.0 | 3.0 | 0.00 | 0.04 | 0.00 | 99 | |
| 20260905113521 | 55 | 62 | 2.0 | 3.0 | 0.00 | 0.04 | 0.00 | 99 | |
| 20260905112529 | 55 | 29 | 0.0 | 3.0 | 0.00 | 0.04 | 0.00 | 99 | |
| 20260905111537 | 55 | 0.0 | 0.0 | 0.00 | 0.04 | 0.00 | 99 | ||
| 20260905110527 | 55 | 36 | 1.0 | 2.0 | 0.00 | 0.04 | 0.00 | 99 | |
| 20260905105535 | 55 | 0.0 | 2.0 | 0.00 | 0.04 | 0.00 | 99 | ||
| 20260905104524 | 55 | 0.0 | 0.0 | 0.00 | 0.04 | 0.00 | 99 | ||
| 20260905103532 | 55 | 39 | 1.0 | 2.0 | 0.00 | 0.04 | 0.00 | 99 | |
| 20260905102527 | 55 | 51 | 1.0 | 3.0 | 0.00 | 0.05 | 0.00 | 99 | |
| 20260905101550 | 55 | 45 | 0.0 | 2.0 | 0.00 | 0.06 | 0.00 | 99 | |
| 20260905100519 | 55 | 0.0 | 0.0 | 0.00 | 0.06 | 0.00 | 99 | ||
| 20260905095548 | 55 | 0.0 | 0.0 | 0.00 | 0.07 | 0.00 | 99 | ||
| 20260905094535 | 55 | 0.0 | 0.0 | 0.00 | 0.07 | 0.00 | 99 | ||
| 20260905093527 | 54 | 0.0 | 0.0 | 0.00 | 0.07 | 0.00 | 99 | ||
| 20260905092533 | 54 | 0.0 | 0.0 | 0.00 | 0.07 | 0.00 | 99 | ||
| 20260905091522 | 55 | 0.0 | 0.0 | 0.00 | 0.08 | 0.00 | 99 | ||
| 20260905090530 | 55 | 0.0 | 0.0 | 0.00 | 0.09 | 0.00 | 99 | ||
| 20260905085521 | 55 | 0.0 | 0.0 | 0.00 | 0.11 | 0.00 | 99 | ||
| 20260905084548 | 55 | 0.0 | 0.0 | 0.00 | 0.12 | 0.00 | 98 | ||
| 20260905083556 | 55 | 0.0 | 0.0 | 0.00 | 0.14 | 0.00 | 98 | ||
| 20260905082527 | 55 | 0.0 | 0.0 | 0.00 | 0.15 | 0.00 | 98 | ||
| 20260905081533 | 56 | 45 | 2.0 | 2.0 | 0.00 | 0.16 | 0.00 | 98 | |
| 20260905080542 | 56 | 45 | 2.0 | 3.0 | 0.00 | 0.16 | 0.00 | 97 | |
| 20260905075551 | 56 | 42 | 3.0 | 4.0 | 0.00 | 0.16 | 0.00 | 97 | |
| 20260905074520 | 57 | 53 | 3.0 | 3.0 | 0.00 | 0.16 | 0.00 | 97 | |
| 20260905073548 | 57 | 61 | 2.0 | 3.0 | 0.00 | 0.16 | 0.00 | 97 | |
| 20260905072556 | 57 | 57 | 3.0 | 4.0 | 0.00 | 0.16 | 0.00 | 97 | |
| 20260905071527 | 57 | 46 | 3.0 | 4.0 | 0.00 | 0.16 | 0.00 | 96 | |
| 20260905070536 | 57 | 47 | 3.0 | 4.0 | 0.00 | 0.16 | 0.00 | 96 | |
| 20260905065521 | 57 | 48 | 3.0 | 4.0 | 0.00 | 0.16 | 0.16 | 95 | |
| 20260905064530 | 57 | 50 | 3.0 | 4.0 | 0.00 | 0.16 | 0.16 | 95 | |
| 20260905063519 | 57 | 77 | 2.0 | 3.0 | 0.00 | 0.16 | 0.16 | 94 | |
| 20260905062546 | 57 | 62 | 2.0 | 3.0 | 0.00 | 0.16 | 0.16 | 93 | |
| 20260905061535 | 57 | 59 | 3.0 | 4.0 | 0.00 | 0.16 | 0.16 | 93 | |
| 20260905060527 | 57 | 90 | 0.0 | 2.0 | 0.00 | 0.16 | 0.16 | 92 | |
| 20260905055535 | 57 | 42 | 2.0 | 3.0 | 0.00 | 0.16 | 0.16 | 92 | |
| 20260905054542 | 57 | 42 | 3.0 | 5.0 | 0.00 | 0.16 | 0.16 | 92 | |
| 20260905053530 | 57 | 48 | 3.0 | 5.0 | 0.00 | 0.16 | 0.16 | 93 | |
| 20260905052520 | 57 | 34 | 3.0 | 4.0 | 0.00 | 0.16 | 0.16 | 93 | |
| 20260905051528 | 57 | 46 | 2.0 | 3.0 | 0.00 | 0.16 | 0.16 | 92 | |
| 20260905050556 | 57 | 39 | 2.0 | 3.0 | 0.00 | 0.16 | 0.16 | 93 | |
| 20260905045550 | 56 | 42 | 1.0 | 2.0 | 0.00 | 0.16 | 0.16 | 94 | |
| 20260905044535 | 56 | 23 | 2.0 | 2.0 | 0.00 | 0.16 | 0.16 | 94 | |
| 20260905043522 | 55 | 0.0 | 0.0 | 0.00 | 0.16 | 0.16 | 95 | ||
| 20260905042531 | 56 | 0.0 | 0.0 | 0.00 | 0.16 | 0.16 | 95 | ||
| 20260905041520 | 56 | 0.0 | 0.0 | 0.00 | 0.16 | 0.16 | 94 | ||
| 20260905040528 | 56 | 151 | 1.0 | 3.0 | 0.00 | 0.16 | 0.16 | 93 | |
| 20260905035556 | 57 | 158 | 2.0 | 4.0 | 0.00 | 0.16 | 0.16 | 93 | |
| 20260905034608 | 57 | 0.0 | 1.0 | 0.00 | 0.16 | 0.16 | 91 | ||
| 20260905033533 | 58 | 158 | 0.0 | 3.0 | 0.00 | 0.16 | 0.16 | 91 | |
| 20260905032523 | 58 | 163 | 2.0 | 3.0 | 0.00 | 0.17 | 0.16 | 90 | |
| 20260905031531 | 58 | 156 | 3.0 | 4.0 | 0.00 | 0.17 | 0.16 | 89 | |
| 20260905030520 | 58 | 105 | 3.0 | 4.0 | 0.00 | 0.17 | 0.16 | 88 | |
| 20260905025527 | 58 | 98 | 4.0 | 6.0 | 0.00 | 0.17 | 0.16 | 88 | |
| 20260905024536 | 59 | 101 | 5.0 | 9.0 | 0.00 | 0.19 | 0.16 | 87 | |
| 20260905023547 | 59 | 94 | 4.0 | 5.0 | 0.00 | 0.22 | 0.16 | 86 | |
| 20260905022533 | 59 | 93 | 5.0 | 7.0 | 0.00 | 0.24 | 0.16 | 85 | |
| 20260905021542 | 60 | 102 | 5.0 | 6.0 | 0.00 | 0.24 | 0.16 | 82 | |
| 20260905020530 | 60 | 85 | 5.0 | 10.0 | 0.00 | 0.24 | 0.16 | 80 | |
| 20260905015520 | 60 | 92 | 6.0 | 12.0 | 0.00 | 0.24 | 0.16 | 79 | |
| 20260905014548 | 61 | 82 | 6.0 | 8.0 | 0.00 | 0.24 | 0.16 | 81 | |
| 20260905013555 | 61 | 59 | 9.0 | 12.0 | 0.00 | 0.24 | 0.16 | 79 | |
| 20260905012544 | 62 | 51 | 8.0 | 12.0 | 0.00 | 0.24 | 0.16 | 79 | |
| 20260905011533 | 62 | 44 | 8.0 | 9.0 | 0.00 | 0.24 | 0.16 | 82 | |
| 20260905010542 | 63 | 50 | 8.0 | 9.0 | 0.00 | 0.25 | 0.16 | 82 | |
| 20260905005550 | 64 | 52 | 7.0 | 9.0 | 0.00 | 0.25 | 0.16 | 80 | |
| 20260905004542 | 63 | 34 | 7.0 | 8.0 | 0.00 | 0.25 | 0.16 | 80 | |
| 20260905003527 | 63 | 19 | 6.0 | 7.0 | 0.00 | 0.25 | 0.16 | 84 | |
| 20260905002534 | 62 | 52 | 5.0 | 6.0 | 0.00 | 0.25 | 0.16 | 85 | |
| 20260905001524 | 62 | 36 | 5.0 | 7.0 | 0.00 | 0.25 | 0.16 | 83 | |
| 20260905000531 | 62 | 47 | 5.0 | 7.0 | 0.00 | 0.26 | 0.16 | 79 | |
| 20260904235521 | 62 | 35 | 5.0 | 7.0 | 0.00 | 0.26 | 0.16 | 80 | |
| 20260904234530 | 62 | 23 | 5.0 | 6.0 | 0.00 | 0.26 | 0.16 | 81 | |
| 20260904233536 | 62 | 60 | 6.0 | 8.0 | 0.00 | 0.26 | 0.16 | 80 | |
| 20260904232528 | 63 | 38 | 7.0 | 8.0 | 0.00 | 0.26 | 0.16 | 78 | |
| 20260904231533 | 65 | 61 | 6.0 | 8.0 | 0.00 | 0.26 | 0.16 | 74 | |
| 20260904230547 | 65 | 62 | 4.0 | 7.0 | 0.00 | 0.27 | 0.16 | 74 | |
| 20260904225550 | 64 | 91 | 4.0 | 5.0 | 0.00 | 0.28 | 0.16 | 75 | |
| 20260904224520 | 63 | 81 | 3.0 | 4.0 | 0.00 | 0.29 | 0.16 | 78 | |
| 20260904223527 | 63 | 99 | 1.0 | 3.0 | 0.00 | 0.30 | 0.16 | 79 | |
| 20260904222536 | 62 | 187 | 1.0 | 3.0 | 0.00 | 0.30 | 0.16 | 82 | |
| 20260904221548 | 62 | 115 | 1.0 | 3.0 | 0.00 | 0.30 | 0.16 | 83 | |
| 20260904220556 | 62 | 178 | 3.0 | 4.0 | 0.00 | 0.30 | 0.16 | 82 | |
| 20260904215523 | 62 | 161 | 2.0 | 3.0 | 0.00 | 0.32 | 0.16 | 84 | |
| 20260904214531 | 61 | 167 | 4.0 | 5.0 | 0.00 | 0.34 | 0.16 | 81 | |
| 20260904213520 | 61 | 162 | 4.0 | 7.0 | 0.00 | 0.39 | 0.16 | 82 | |
| 20260904212548 | 61 | 150 | 5.0 | 7.0 | 0.00 | 0.40 | 0.16 | 81 | |
| 20260904211535 | 63 | 181 | 9.0 | 12.0 | 0.00 | 0.40 | 0.16 | 77 | |
| 20260904210527 | 66 | 94 | 9.0 | 10.0 | 0.00 | 0.40 | 0.16 | 64 | |
| 20260904205541 | 66 | 144 | 6.0 | 9.0 | 0.00 | 0.40 | 0.16 | 66 | |
| 20260904204522 | 66 | 103 | 5.0 | 6.0 | 0.00 | 0.40 | 0.16 | 67 | |
| 20260904203530 | 66 | 92 | 4.0 | 6.0 | 0.00 | 0.40 | 0.16 | 67 | |
| 20260904202519 | 65 | 161 | 3.0 | 6.0 | 0.00 | 0.40 | 0.16 | 69 | |
| 20260904201527 | 64 | 65 | 4.0 | 7.0 | 0.00 | 0.40 | 0.16 | 76 | |
| 20260904200535 | 64 | 54 | 3.0 | 6.0 | 0.00 | 0.40 | 0.16 | 76 | |
| 20260904195527 | 63 | 75 | 3.0 | 4.0 | 0.00 | 0.40 | 0.16 | 79 | |
| 20260904194556 | 63 | 65 | 2.0 | 3.0 | 0.00 | 0.40 | 0.16 | 81 | |
| 20260904193522 | 62 | 169 | 1.0 | 3.0 | 0.00 | 0.40 | 0.16 | 84 | |
| 20260904192550 | 61 | 12 | 2.0 | 4.0 | 0.00 | 0.40 | 0.16 | 85 | |
| 20260904191520 | 61 | 80 | 4.0 | 5.0 | 0.00 | 0.40 | 0.16 | 81 | |
| 20260904190546 | 63 | 203 | 3.0 | 5.0 | 0.00 | 0.40 | 0.16 | 79 | |
| 20260904185536 | 63 | 289 | 2.0 | 3.0 | 0.00 | 0.40 | 0.16 | 77 | |
| 20260904184524 | 63 | 53 | 4.0 | 5.0 | 0.00 | 0.40 | 0.16 | 80 | |
| 20260904183533 | 63 | 54 | 3.0 | 4.0 | 0.00 | 0.40 | 0.16 | 79 | |
| 20260904182521 | 62 | 43 | 2.0 | 4.0 | 0.00 | 0.40 | 0.16 | 81 | |
| 20260904181530 | 61 | 8 | 4.0 | 5.0 | 0.00 | 0.40 | 0.16 | 82 | |
| 20260904180519 | 62 | 7 | 2.0 | 4.0 | 0.00 | 0.40 | 0.16 | 83 | |
| 20260904175527 | 61 | 338 | 1.0 | 3.0 | 0.00 | 0.40 | 0.16 | 85 | |
| 20260904174536 | 62 | 298 | 1.0 | 4.0 | 0.00 | 0.40 | 0.16 | 83 | |
| 20260904173524 | 62 | 7 | 2.0 | 4.0 | 0.00 | 0.40 | 0.16 | 81 | |
| 20260904172533 | 62 | 74 | 1.0 | 3.0 | 0.00 | 0.40 | 0.16 | 81 | |
| 20260904171602 | 62 | 113 | 1.0 | 2.0 | 0.00 | 0.43 | 0.16 | 83 | |
| 20260904170530 | 62 | 20 | 1.0 | 2.0 | 0.00 | 0.45 | 0.16 | 84 | |
| 20260904165520 | 61 | 349 | 0.0 | 3.0 | 0.00 | 0.46 | 0.16 | 85 | |
| 20260904164527 | 61 | 311 | 2.0 | 4.0 | 0.00 | 0.47 | 0.16 | 87 | |
| 20260904163558 | 60 | 8 | 2.0 | 3.0 | 0.00 | 0.47 | 0.16 | 88 | |
| 20260904162527 | 60 | 3 | 3.0 | 4.0 | 0.00 | 0.47 | 0.16 | 88 | |
| 20260904161532 | 60 | 61 | 2.0 | 4.0 | 0.00 | 0.47 | 0.16 | 89 | |
| 20260904160522 | 59 | 351 | 3.0 | 6.0 | 0.02 | 0.48 | 0.16 | 92 | |
| 20260904155550 | 57 | 24 | 4.0 | 5.0 | 0.03 | 0.48 | 0.16 | 96 | |
| 20260904154519 | 56 | 45 | 3.0 | 6.0 | 0.03 | 0.48 | 0.16 | 98 | |
| 20260904153527 | 55 | 24 | 4.0 | 5.0 | 0.03 | 0.48 | 0.16 | 99 | |
| 20260904152535 | 55 | 353 | 2.0 | 3.0 | 0.03 | 0.48 | 0.16 | 99 |